Regional Weather Roundup
Issued by NWS

Home | Current Version | Previous Version | Graphics & Text | Print | Product List | Glossary On
Versions: 1 2 3 4 5 6 7 8 9 10 11 12 13 14 15 16 17 18 19 20 21 22 23 24 25 26 27 28 29 30 31 32 33 34 35 36 37 38 39 40 41 42 43 44 45 46 47 48 49 50
000
ASUS43 KLOT 231012
RWRIL

ILLINOIS REGIONAL WEATHER ROUNDUP
NATIONAL WEATHER SERVICE CHICAGO/ROMEOVILLE IL
500 AM CDT SAT MAY 23 2015

NOTE: "FAIR" INDICATES FEW OR NO CLOUDS BELOW 12,000 FEET WITH NO
SIGNIFICANT WEATHER AND/OR OBSTRUCTIONS TO VISIBILITY.

* THESE STATIONS ARE NOT UNDER NWS QUALITY CONTROL. THEY ALSO MAY NOT
  REPORT WEATHER SUCH AS PRECIPITATION OR FOG.

ILZ001-002-007-009-015-016-024-231100-
NORTHWEST ILLINOIS

CITY           SKY/WX    TMP DP  RH WIND       PRES   REMARKS
MOLINE         CLOUDY    53  44  71 E3        30.27R
STERLING*      CLOUDY    55  37  50 E8        30.29R
SAVANNA*       MOCLDY    56  37  49 CALM      30.28R
$$

ILZ003-004-008-010-011-017-018-231100-
NORTH CENTRAL ILLINOIS

CITY           SKY/WX    TMP DP  RH WIND       PRES   REMARKS
ROCKFORD       PTCLDY    46  36  68 CALM      30.32R
FREEPORT*      PTCLDY    47  35  63 CALM      30.31R
ROCHELLE*      MOCLDY    52  36  54 SE7       30.30S
DE KALB*       PTCLDY    47  36  63 SE7       30.31S
PERU*          CLOUDY    55  40  58 E5        30.30R
$$

ILZ005-006-012>014-019>023-231100-
NORTHEAST ILLINOIS

CITY           SKY/WX    TMP DP  RH WIND       PRES   REMARKS
CHICAGO-OHARE  PTCLDY    50  37  61 S3        30.30R
CHICAGO-MIDWAY PTCLDY    56  33  42 S5        30.31R
AURORA         PTCLDY    45  36  70 N5        30.31R
LANSING*       CLEAR     48  38  69 CALM      30.32R
JOLIET*        PTCLDY    50  39  65 CALM      30.31R
WAUKEGAN       CLEAR     42  35  76 SE3       30.30R
DUPAGE AIRPORT PTCLDY    44  37  76 CALM      30.31R
KANKAKEE*      MOCLDY    51  40  66 CALM      30.32R
WHEELING       PTCLDY    44  38  79 CALM      30.32R
MORRIS*        PTCLDY    53  38  57 E5        30.28S
ROMEOVILLE*    PTCLDY    51  35  53 SE3       30.31S
NORTHERLY ISL    N/A     50  43  77 CALM        N/A
$$

LMZ740>746-231100-
SOUTHERN LAKE MICHIGAN

STATION/POSITION SKY/WX   TEMP    WIND        PRES    VSBY  WAVE
                          AIR SEA DIR/SP/G                  HT/PER
                          (F)     (DEG/KT/KT) (MB)    (MI)  (FT/S)
SOUTHERN BUOY              42 38  220/  4/  6 1027.5R         0
HARRISON CRIB              54     150/  9/ 11   N/A
BURNHAM HARBOR             51      CALM  /  2   N/A
CALUMET HARBOR             57     120/  6/ 10   N/A
BURNS HARBOR               57     130/ 11/ 16 1026.4R
MICHIGAN CITY              54     100/ 10/ 12   N/A
MICHIGAN CITY 6N           54 51  140/  8/ 10   N/A           1/ 2
ST. JOSEPH                 53 53  180/ 10/ 12   N/A           1/ 2
$$

ILZ025>027-034>036-040-047-049-050-058-095>099-231100-
WEST-CENTRAL ILLINOIS

CITY           SKY/WX    TMP DP  RH WIND       PRES   REMARKS
QUINCY         PTCLDY    56  51  84 SE6       30.27R
GALESBURG*     MOCLDY    54  51  90 CALM      30.28R
MACOMB*        CLOUDY    56  54  92 SW3       30.30R
JACKSONVILLE*  PTCLDY    56  54  90 CALM      30.29R
PITTSFIELD*    PTCLDY    56  51  85 CALM      30.29R
$$

ILZ028>032-037-038-041>044-048-051>054-059>061-231100-
CENTRAL ILLINOIS

CITY           SKY/WX    TMP DP  RH WIND       PRES   REMARKS
PONTIAC        CLOUDY    55  42  60 E3        30.31R
BLOOMINGTON    MOCLDY    58  43  57 SE7       30.30R
DECATUR        PTCLDY    57  51  80 SW3       30.29R
PEORIA         PTCLDY    59  44  57 CALM      30.29R
LACON*         MOCLDY    55  41  58 CALM      30.29R
LINCOLN*       CLOUDY    58  52  81 CALM      30.27R
SPRINGFIELD    PTCLDY    55  52  89 CALM      30.29R
TAYLORVILLE    PTCLDY    54  52  94 CALM      30.30R
$$

ILZ033-039-045-046-055>057-062-063-231100-
EAST-CENTRAL ILLINOIS

CITY           SKY/WX    TMP DP  RH WIND       PRES   REMARKS
CHAMPAIGN      CLOUDY    58  46  64 E3        30.29R
DANVILLE*      CLOUDY    57  41  56 E5        30.28R
RANTOUL*       CLOUDY    59  44  58 E3        30.29R
MATTOON        MOCLDY    60  52  74 S8        30.29R
PARIS*         CLOUDY    61  52  73 CALM      30.30R
$$

ILZ079-100>102-231100-
SOUTHWEST ILLINOIS

CITY           SKY/WX    TMP DP  RH WIND       PRES   REMARKS
ALTON          MOCLDY    60  59  97 CALM      30.30R
BELLEVILLE     MOCLDY    59  58  97 CALM      30.28R
CAHOKIA*       MOCLDY    60  55  83 S3        30.29R
SPARTA*        CLOUDY    59  56  87 CALM      30.31R
$$

ILZ064>066-069>071-074>076-080>082-084>086-088>090-092>094-231100-
SOUTH-CENTRAL ILLINOIS

CITY           SKY/WX    TMP DP  RH WIND       PRES   REMARKS
CARBONDALE     CLOUDY    57  55  93 CALM      30.30R
CAIRO*         CLOUDY    59  58  96 CALM      30.31R
EFFINGHAM*     CLOUDY    58  53  83 CALM      30.32R
MARION         CLOUDY    59  57  94 CALM      30.31S
MT. VERNON     CLOUDY    55  52  88 CALM      30.31R
CENTRALIA*     MOCLDY    57  54  89 N6        30.31R
SALEM*         CLOUDY    60  54  82 CALM      30.31R
METROPOLIS*    CLOUDY    58  58 100 CALM      30.30R
$$

ILZ067-068-072-073-078-083-087-091-231100-
SOUTHEAST ILLINOIS

CITY           SKY/WX    TMP DP  RH WIND       PRES   REMARKS
LAWRENCEVILLE  CLOUDY    58  55  90 S5        30.30R
FLORA*         CLOUDY    58  54  86 CALM      30.31R
FAIRFIELD*     CLOUDY    58  56  93 CALM      30.30R
HARRISBURG*    CLOUDY    58  58  99 CALM      30.32R
ROBINSON*      CLOUDY    58  55  91 CALM      30.31R
CARMI*         CLOUDY    57  52  83 CALM      30.31R
$$

ABBREVIATIONS USED IN REMARKS
   TC - TEMPERATURE IN CELSIUS
  WCI - WIND CHILL INDEX
   HX - HEAT INDEX
  VSB - VISIBILITY
$$




USA.gov is the U.S. government's official web portal to all federal, state and local government web resources and services.